Lake Shasta Weather Center

Moon Phase Calendar



Lake Shasta Water Level
Online Cameras

 


      

Current Conditions in Lake Shasta
10/26/2020 8:51:54 AM

53°F
Feels Like 35
Clear
Humidity
11%
Pressure
30.27"
Wind
20.8 mph (N)
Dew Point
3°F
UV Index
3/10 (Moderate)
Visibility
6 mi

Hourly Forecast

Date & Time Mon, Oct 26
8:00 AM
Mon, Oct 26
9:00 AM
Mon, Oct 26
10:00 AM
Mon, Oct 26
11:00 AM
Mon, Oct 26
12:00 PM
Mon, Oct 26
1:00 PM
Mon, Oct 26
2:00 PM
Mon, Oct 26
3:00 PM
Mon, Oct 26
4:00 PM
Mon, Oct 26
5:00 PM
Mon, Oct 26
6:00 PM
Mon, Oct 26
7:00 PM
Mon, Oct 26
8:00 PM
Mon, Oct 26
9:00 PM
Mon, Oct 26
10:00 PM
Mon, Oct 26
11:00 PM
Tue, Oct 27
12:00 AM
Tue, Oct 27
1:00 AM
Tue, Oct 27
2:00 AM
Tue, Oct 27
3:00 AM
Tue, Oct 27
4:00 AM
Tue, Oct 27
5:00 AM
Tue, Oct 27
6:00 AM
Tue, Oct 27
7:00 AM
Tue, Oct 27
8:00 AM
Tue, Oct 27
9:00 AM
Tue, Oct 27
10:00 AM
Tue, Oct 27
11:00 AM
Tue, Oct 27
12:00 PM
Tue, Oct 27
1:00 PM
Tue, Oct 27
2:00 PM
Tue, Oct 27
3:00 PM
Tue, Oct 27
4:00 PM
Tue, Oct 27
5:00 PM
Tue, Oct 27
6:00 PM
Tue, Oct 27
7:00 PM
Tue, Oct 27
8:00 PM
Tue, Oct 27
9:00 PM
Tue, Oct 27
10:00 PM
Tue, Oct 27
11:00 PM
Wed, Oct 28
12:00 AM
Wed, Oct 28
1:00 AM
Wed, Oct 28
2:00 AM
Wed, Oct 28
3:00 AM
Wed, Oct 28
4:00 AM
Wed, Oct 28
5:00 AM
Wed, Oct 28
6:00 AM
Wed, Oct 28
7:00 AM
Condition
Clear

Clear

Clear

Clear

Clear

Clear

Clear

Clear

Clear

Clouds

Clouds

Clouds

Clouds

Clouds

Clouds

Clouds

Clouds

Clouds

Clouds

Clouds

Clouds

Clouds

Clear

Clear

Clear

Clear

Clear

Clear

Clear

Clear

Clear

Clear

Clear

Clear

Clear

Clear

Clear

Clear

Clear

Clear

Clear

Clear

Clear

Clear

Clear

Clear

Clear

Clear
Temperature 53°F49°F52°F58°F64°F69°F72°F74°F74°F73°F63°F59°F56°F54°F52°F51°F51°F51°F51°F50°F50°F50°F50°F50°F50°F57°F64°F72°F79°F84°F87°F89°F88°F86°F73°F68°F65°F62°F59°F57°F55°F54°F53°F52°F51°F50°F49°F48°F
Feels Like 41°F38°F42°F48°F54°F59°F63°F65°F66°F65°F56°F51°F48°F45°F44°F43°F42°F42°F42°F42°F41°F41°F41°F41°F41°F48°F56°F65°F72°F77°F81°F82°F82°F80°F68°F61°F57°F54°F52°F50°F48°F47°F46°F45°F44°F43°F43°F42°F
Cloudiness 1%2%3%2%0%0%0%6%7%12%33%50%53%47%57%64%45%29%46%40%33%28%0%0%0%0%0%0%0%0%0%0%0%0%0%0%0%0%0%0%0%0%0%0%0%0%0%0%
Visibility 6 mi6 mi6 mi6 mi6 mi6 mi6 mi6 mi6 mi6 mi6 mi6 mi6 mi6 mi6 mi6 mi6 mi6 mi6 mi6 mi6 mi6 mi6 mi6 mi6 mi6 mi6 mi6 mi6 mi6 mi6 mi6 mi6 mi6 mi6 mi6 mi6 mi6 mi6 mi6 mi6 mi6 mi6 mi6 mi6 mi6 mi6 mi6 mi
Precipitation 0%0%0%0%0%0%0%0%0%0%0%0%0%0%0%0%0%0%0%0%0%0%0%0%0%0%0%0%0%0%0%0%0%0%0%0%0%0%0%0%0%0%0%0%0%0%0%0%
Humidity 11%25%26%23%17%14%13%12%12%13%19%23%26%29%32%34%35%36%37%38%39%39%39%39%39%31%24%18%16%13%12%11%12%13%19%23%26%28%30%32%34%35%37%38%39%41%43%44%
Dew Point 3°F17°F20°F22°F20°F-9°F-9°F-8°F-6°F-4°F-2°F-3°F-1°F1°F4°F6°F7°F9°F10°F11°F11°F11°F12°F12°F12°F12°F14°F16°F21°F23°F22°F21°F21°F22°F22°F22°F22°F20°F18°F17°F15°F15°F15°F15°F16°F16°F17°F17°F
Pressure 30.27"30.33"30.33"30.3"30.27"30.21"30.18"30.15"30.15"30.15"30.15"30.18"30.21"30.21"30.24"30.27"30.24"30.24"30.24"30.24"30.24"30.24"30.24"30.24"30.24"30.24"30.21"30.18"30.15"30.12"30.06"30.03"30.03"30.03"30.06"30.09"30.09"30.12"30.12"30.15"30.15"30.12"30.12"30.12"30.12"30.12"30.12"30.15"
Wind Speed 9.2 mph9.2 mph9 mph9 mph8.2 mph7.6 mph7.3 mph6.7 mph5.5 mph4.6 mph3 mph4.7 mph6 mph6.6 mph6.8 mph7 mph7.3 mph7.4 mph7.3 mph7.4 mph7.4 mph7.7 mph7.9 mph8 mph8.1 mph7.9 mph7.1 mph6 mph5.6 mph4.8 mph4 mph4.1 mph4.2 mph3.6 mph3 mph5.5 mph6.6 mph6.8 mph6.1 mph5 mph4.9 mph5.1 mph5.3 mph5.2 mph4.7 mph4.3 mph4.3 mph4.4 mph
Wind
Direction
12°
NNE
14°
NNE
21°
NNE
25°
NNE
32°
NNE
32°
NNE
36°
NE
40°
NE
45°
NE
50°
NE
49°
NE

N
358°
N
360°
N
355°
N
358°
N
358°
N
359°
N
360°
N

N

N

N

N

N

N

N
12°
NNE
18°
NNE
22°
NNE
28°
NNE
35°
NE
45°
NE
55°
NE
60°
ENE
29°
NNE

N

N
358°
N
359°
N

N

N

N

N

N

N

N

N

N

Daily Forecast

Date High Low Precip. Humidity
Today
Oct 26

Clear
72 °F
39 °F
0%
17%
Tuesday
Oct 27

Clear
87 °F
50 °F
0%
18%
Wednesday
Oct 28

Clear
82 °F
49 °F
0%
17%
Thursday
Oct 29

Clear
86 °F
51 °F
0%
15%
Friday
Oct 30

Clear
80 °F
49 °F
0%
17%
Saturday
Oct 31

Clear
85 °F
49 °F
0%
17%
Sunday
Nov 1

Clear
87 °F
51 °F
0%
15%
Monday
Nov 2

Clear
85 °F
51 °F
0%
14%
Tuesday
Nov 3

Clouds
79 °F
50 °F
0%
17%
Wednesday
Nov 4

Clear
89 °F
53 °F
0%
17%
Thursday
Nov 5

Clear
93 °F
56 °F
0%
16%
Friday
Nov 6

Clear
92 °F
56 °F
0%
15%
Saturday
Nov 7

Clear
86 °F
56 °F
0%
15%
Sunday
Nov 8

Rain
75 °F
47 °F
35%
40%
Monday
Nov 9

Clear
71 °F
42 °F
0%
34%
Tuesday
Nov 10

Clouds
74 °F
42 °F
0%
26%


Temperature 8-14 Day Outlook



Precipitation 8-14 Day Outlook




Quick Links
Lake Shasta News
Lake Shasta Photos
Lake Shasta Videos




About Us
Contact Us
Site Map
Search Site
Advertise With Us
   
Shasta.USLakes.info
THE LAKE SHASTA WEBSITE

Copyright 2020, Lakes Online
Privacy    |    Legal